Location: Santa Barbara
(34.4500°N, 119.7700°W)
Time: 19:27:36
(UTC-07:00)

ISS - Visible Passes

Search period start: 21 March 2019 00:00
Search period end: 31 March 2019 00:00
Orbit: 406 x 411 km, 51.6° (Epoch: 22 March)

Date Brightness Start Highest point End Pass type
(mag) Time Alt. Az. Time Alt. Az. Time Alt. Az.
21 Mar -3.8 20:06:35 10° SW 20:09:52 87° NW 20:12:51 12° NE visible
21 Mar -0.2 21:45:35 10° NW 21:45:39 10° NW 21:45:39 10° NW visible
22 Mar -1.1 20:53:14 10° WNW 20:55:36 18° NNW 20:57:27 12° N visible
23 Mar -1.9 20:01:28 10° W 20:04:25 30° NW 20:07:22 10° NNE visible
25 Mar -0.9 19:57:10 10° WNW 19:59:06 14° NNW 20:01:01 10° N visible
